GW6808 Weather Reports


time (UTC)temp
C
wind
direction
speed
KPH
gust
KPH
rain 1hr
cm
rain 24hr
cm
rain mn
cm
humidity
%
barometer
mb
20260503190017 14 52 4.8 8.0 0.00 0.00 0.00 42 1016.7
20260503184520 13 6 3.2 8.0 0.00 0.00 0.00 44 1016.9
20260503183027 13 46 3.2 17.7 0.00 0.00 0.00 43 1017.3
20260503181535 14 46 4.8 14.5 0.00 0.00 0.00 42 1017.8
20260503180029 14 30 3.2 9.7 0.00 0.00 0.00 41 1017.8
20260503174511 15 77 6.4 16.1 0.00 0.00 0.00 39 1018.0
20260503173036 14 55 4.8 16.1 0.00 0.00 0.00 40 1018.4
20260503171520 14 41 6.4 16.1 0.00 0.00 0.00 39 1018.5
20260503081514 2 63 0.0 0.0 0.00 0.00 0.00 80 1019.3
20260503071516 2 63 0.0 0.0 0.00 0.00 0.00 79 1019.3
20260503054515 2 85 0.0 0.0 0.00 0.00 0.00 81 1019.9
20260503053012 2 85 0.0 0.0 0.00 0.00 0.00 82 1020.0
20260503051511 2 85 0.0 0.0 0.00 0.00 0.00 85 1020.1
20260503050012 2 85 0.0 0.0 0.00 0.00 0.00 83 1020.1
20260503044522 2 85 0.0 0.0 0.00 0.00 0.00 84 1020.0
20260503043013 2 85 0.0 0.0 0.00 0.00 0.00 82 1020.0
20260503041514 2 85 0.0 0.0 0.00 0.00 0.00 82 1019.9
20260503040015 2 85 0.0 0.0 0.00 0.00 0.00 83 1020.0
20260503034514 3 85 0.0 0.0 0.00 0.00 0.00 81 1020.0
20260503033002 3 85 0.0 0.0 0.00 0.00 0.00 81 1020.1
20260503031504 3 85 0.0 0.0 0.00 0.00 0.00 79 1020.1
20260503030012 3 85 0.0 0.0 0.00 0.00 0.00 75 1020.2
20260503024513 4 85 0.0 0.0 0.00 0.00 0.00 72 1020.1
20260503023016 4 85 0.0 0.0 0.00 0.00 0.00 71 1020.0
20260503021514 5 85 0.0 0.0 0.00 0.00 0.00 70 1020.0
20260503020007 5 85 0.0 0.0 0.00 0.00 0.00 65 1019.8
20260503014510 5 85 0.0 0.0 0.00 0.00 0.00 59 1019.7
20260503013016 6 85 0.0 0.0 0.00 0.00 0.00 56 1019.7
20260503011518 7 85 0.0 0.0 0.00 0.00 0.00 50 1019.7
20260503010003 8 86 0.0 0.0 0.00 0.00 0.00 47 1019.6
20260503004509 9 96 0.0 9.7 0.00 0.00 0.00 41 1019.6
20260503003026 9 101 3.2 6.4 0.00 0.00 0.00 40 1019.6
20260503001520 9 90 3.2 6.4 0.00 0.00 0.00 40 1019.5
20260503000029 9 91 1.6 4.8 0.00 0.00 0.00 41 1019.4
20260502234509 10 100 1.6 3.2 0.00 0.00 0.00 42 1019.3
20260502233012 10 82 1.6 8.0 0.00 0.00 0.00 40 1019.3
20260502231515 10 99 3.2 12.9 0.00 0.00 0.00 39 1019.4
20260502230023 10 93 1.6 16.1 0.00 0.00 0.00 39 1019.4
20260502224521 10 165 6.4 19.3 0.00 0.00 0.00 37 1019.3
20260502223024 10 155 6.4 16.1 0.00 0.00 0.00 39 1019.3
20260502221513 10 98 3.2 9.7 0.00 0.00 0.00 39 1019.3
20260502220018 10 101 6.4 19.3 0.00 0.00 0.00 38 1019.3
20260502214524 10 97 6.4 16.1 0.00 0.00 0.00 38 1019.3
20260502213023 10 167 8.0 22.5 0.00 0.00 0.00 40 1019.3
20260502211510 10 173 8.0 22.5 0.00 0.00 0.00 39 1019.2
20260502210014 10 114 3.2 14.5 0.00 0.00 0.00 41 1019.3
20260502204521 10 106 8.0 16.1 0.00 0.00 0.00 40 1019.3
20260502203032 10 74 4.8 16.1 0.00 0.00 0.00 40 1019.4
20260502201526 10 116 8.0 14.5 0.00 0.00 0.00 41 1019.5
20260502200015 9 103 9.7 24.1 0.00 0.00 0.00 41 1019.6
20260502194523 10 147 6.4 19.3 0.00 0.00 0.00 40 1019.8
20260502193024 10 163 8.0 17.7 0.00 0.00 0.00 40 1019.8
20260502191525 10 106 6.4 19.3 0.00 0.00 0.00 43 1019.8